Location: Newark
(41.9364°N, 2.8061°E)
Time: 21:29:25
(UTC+00:00)

Vanguard 2 Rocket - All Passes

Search period start: 28 February 2020 00:00
Search period end: 09 March 2020 00:00
Orbit: 553 x 3327 km, 32.9° (Epoch: 27 February)

Date Brightness Start Highest point End Pass type
(mag) Time Alt. Az. Time Alt. Az. Time Alt. Az.
28 Feb - 00:26:53 10° W 00:34:22 19° SW 00:39:50 10° S visible
28 Feb - 14:21:05 10° S 14:32:30 19° SE 14:44:13 10° E daylight
28 Feb - 16:30:05 10° SW 16:48:02 43° SSE 17:04:01 10° E daylight
28 Feb - 18:45:21 10° WSW 19:05:00 60° S 19:19:05 10° E visible
28 Feb - 21:03:43 10° W 21:21:17 56° SSW 21:32:05 10° ESE visible
28 Feb - 23:23:28 10° W 23:35:04 30° SW 23:42:34 10° SSE visible
29 Feb - 13:26:53 10° SE 13:31:54 11° SE 13:37:05 10° ESE daylight
29 Feb - 15:30:16 10° SSW 15:46:35 35° SE 16:02:37 10° E daylight
29 Feb - 17:43:45 10° SW 18:03:17 57° SSE 18:18:57 10° E visible
29 Feb - 20:01:09 10° W 20:20:16 61° S 20:32:48 10° ESE visible
29 Feb - 22:20:27 10° W 22:35:16 41° SSW 22:44:28 10° SE visible
01 Mar - 00:43:19 10° WSW 00:47:17 12° SW 00:50:41 10° SSW visible
01 Mar - 14:31:24 10° S 14:45:25 27° SE 15:00:17 10° E daylight
01 Mar - 16:42:47 10° SW 17:01:28 51° SSE 17:18:19 10° E daylight
01 Mar - 18:58:54 10° WSW 19:18:47 63° S 19:33:07 10° ESE visible
01 Mar - 21:17:36 10° W 21:34:54 51° SSW 21:45:48 10° SE visible
01 Mar - 23:38:14 10° W 23:48:07 22° SW 23:55:06 10° S visible
02 Mar - 13:33:57 10° S 13:44:41 19° SE 13:56:28 10° E daylight
02 Mar - 15:42:32 10° SW 15:59:47 44° SSE 16:17:07 10° E daylight
02 Mar - 17:57:08 10° WSW 18:16:58 62° S 18:33:00 10° E visible
02 Mar - 20:14:58 10° W 20:33:59 58° SSW 20:46:38 10° ESE visible
02 Mar - 22:34:41 10° W 22:48:29 33° SW 22:57:34 10° SSE visible
03 Mar - 12:40:25 10° SE 12:44:21 11° SE 12:48:29 10° ESE daylight
03 Mar - 14:43:05 10° SSW 14:58:24 36° SE 15:15:15 10° E daylight
03 Mar - 16:55:56 10° WSW 17:15:00 58° SSE 17:32:26 10° E daylight
03 Mar - 19:12:39 10° W 19:32:33 63° S 19:47:02 10° ESE visible
03 Mar - 21:31:36 10° W 21:48:19 44° SSW 21:59:13 10° SE visible
03 Mar - 23:54:06 10° W 00:00:57 15° SW 00:06:24 10° SSW visible
04 Mar - 13:44:34 10° S 13:57:28 27° SE 14:12:27 10° E daylight
04 Mar - 15:55:23 10° SW 16:13:08 52° SSE 16:31:20 10° E daylight
04 Mar - 18:10:45 10° WSW 18:30:42 64° S 18:46:59 10° ESE visible
04 Mar - 20:28:52 10° W 20:47:32 53° SSW 21:00:17 10° SE visible
04 Mar - 22:49:21 10° W 23:01:27 25° SW 23:10:04 10° S visible
05 Mar - 12:47:27 10° SSE 12:57:01 18° SE 13:08:08 10° E daylight
05 Mar - 14:55:33 10° SW 15:11:31 44° SSE 15:29:41 10° E daylight
05 Mar - 17:09:25 10° WSW 17:28:39 63° S 17:46:26 10° E daylight
05 Mar - 19:26:29 10° W 19:46:13 60° SSW 20:00:50 10° ESE visible
05 Mar - 21:45:49 10° W 22:01:28 35° SW 22:12:15 10° SSE visible
06 Mar - 13:56:27 10° SSW 14:10:22 36° SE 14:27:20 10° E daylight
06 Mar - 16:08:40 10° WSW 16:26:37 59° SSE 16:45:23 10° E daylight
06 Mar - 18:24:33 10° W 18:44:26 64° S 19:00:51 10° ESE visible
06 Mar - 20:42:53 10° W 21:00:54 45° SSW 21:13:38 10° SE visible
06 Mar - 23:04:59 10° W 23:14:13 18° SW 23:21:29 10° SSW visible
07 Mar - 12:58:16 10° S 13:09:43 26° SE 13:24:05 10° E daylight
07 Mar - 15:08:33 10° SW 15:24:48 52° SSE 15:43:50 10° E daylight
07 Mar - 17:23:08 10° WSW 17:42:22 65° S 18:00:22 10° ESE daylight
07 Mar - 19:40:26 10° W 19:59:45 54° SSW 20:14:24 10° SE visible
07 Mar - 22:00:28 10° W 22:14:24 27° SW 22:24:40 10° S visible
08 Mar - 12:01:33 10° SSE 12:09:37 17° SE 12:19:21 10° E daylight
08 Mar - 14:09:05 10° SW 14:23:25 44° SSE 14:41:42 10° E daylight
08 Mar - 16:22:14 10° WSW 16:40:14 63° S 16:59:22 10° E daylight
08 Mar - 18:38:27 10° W 18:58:05 60° SSW 19:14:35 10° ESE visible
08 Mar - 20:57:07 10° W 21:14:02 37° SW 21:26:33 10° SSE visible
08 Mar - 23:24:10 10° WSW 23:26:51 11° SW 23:29:22 10° SW visible
